This is the latest recevied weather packets stored in our database for station/object OE3AOG. If no packets are shown the sender has not sent any weather packets the latest 10 day(s).
| Time | Temp. | Humidity | Pressure | Rain* | Wind** | Luminosity | Snow |
|---|---|---|---|---|---|---|---|
| 1777739130 | 22.78° C | 27% | 1018.7 hPa | 0 mm | - | 39 W/m² | - |
| 1777738521 | 22.78° C | 27% | 1018.8 hPa | 0 mm | - | 41 W/m² | - |
| 1777737942 | 22.78° C | 27% | 1019 hPa | 0 mm | - | 64 W/m² | - |
| 1777737322 | 23.33° C | 27% | 1019.1 hPa | 0 mm | - | 52 W/m² | - |
| 1777736730 | 23.33° C | 27% | 1019.2 hPa | 0 mm | - | 223 W/m² | - |
| 1777736122 | 23.89° C | 27% | 1019.2 hPa | 0 mm | - | 257 W/m² | - |
| 1777735530 | 23.33° C | 28% | 1019.3 hPa | 0 mm | - | 281 W/m² | - |
| 1777734922 | 23.33° C | 27% | 1019.5 hPa | 0 mm | - | 298 W/m² | - |
| 1777734330 | 23.33° C | 28% | 1019.4 hPa | 0 mm | - | 220 W/m² | - |
| 1777733721 | 23.89° C | 26% | 1019.6 hPa | 0 mm | - | 316 W/m² | - |
| 1777733122 | 24.44° C | 26% | 1019.8 hPa | 0 mm | - | 389 W/m² | - |
| 1777732530 | 24.44° C | 26% | 1019.8 hPa | 0 mm | - | 418 W/m² | - |
| 1777731922 | 23.89° C | 25% | 1019.8 hPa | 0 mm | - | 446 W/m² | - |
| 1777731329 | 23.89° C | 26% | 1020.1 hPa | 0 mm | - | 470 W/m² | - |
| 1777730722 | 23.89° C | 26% | 1020.1 hPa | 0 mm | - | 493 W/m² | - |
| 1777730130 | 23.89° C | 26% | 1020.2 hPa | 0 mm | - | 516 W/m² | - |
| 1777729522 | 23.89° C | 26% | 1020.1 hPa | 0 mm | - | 534 W/m² | - |
| 1777728930 | 23.89° C | 27% | 1020.2 hPa | 0 mm | - | 554 W/m² | - |
| 1777728322 | 23.89° C | 27% | 1020.5 hPa | 0 mm | - | 572 W/m² | - |
| 1777727729 | 23.33° C | 27% | 1020.7 hPa | 0 mm | - | 589 W/m² | - |
| 1777727122 | 23.33° C | 27% | 1020.8 hPa | 0 mm | - | 604 W/m² | - |
| 1777726530 | 22.78° C | 27% | 1020.8 hPa | 0 mm | - | 619 W/m² | - |
| 1777725922 | 23.33° C | 27% | 1021 hPa | 0 mm | - | 629 W/m² | - |
| 1777725331 | 23.33° C | 27% | 1021.1 hPa | 0 mm | - | 638 W/m² | - |
| 1777724722 | 23.33° C | 27% | 1021.2 hPa | 0 mm | - | 648 W/m² | - |
* Rain latest hour (hover to see other rain measurements)
** Current wind speed in m/s (hover to see current wind gust speed)